Vertical_Velocity
-3 5 -4 -2 -0 -1 -2 -5 -1 -2 6 2 -4 -2 -2 0 -1 -3 3 -8 -2 -4 -1 -0 -2 -2 0 1 -4 1 -2 -4
-1 0 -1 4 -0 -0 -0 3 7 3 -1 -1 -2 -1 -4 -4 -4 -1 -3 -6 4 -2 -2 -1 -3 -3 -3 -4 -5 -4 4 2
1 0 4 -0 -0 -2 -1 0 -1 -2 3 -1 1 -2 -3 -2 -6 -1 -4 -3 3 2 -2 -5 -2 -2 -1 -4 -6 -6 -2 4
1 1 -1 -0 -0 -0 1 0 5 2 -6 3 2 -0 1 1 4 -6 0 -8 -3 -4 -5 -2 -0 -2 1 -3 -1 -3 -13 8
4 3 1 -0 1 2 2 -1 -1 7 2 -6 3 2 2 -1 -1 -1 3 -0 -1 -6 -3 -10 -9 -6 -3 3 -0 -3 -6 -7
0 -0 -0 3 2 1 -1 -6 2 7 6 2 -1 1 -1 -1 -2 -0 -3 -3 -4 -2 -5 -1 1 -1 -4 -4 -2 1 0 -3
2 3 -3 9 5 4 0 2 -2 -9 6 1 2 2 2 1 -2 -5 -2 -2 -3 3 0 -1 -0 -1 -6 -1 -3 -4 -2 4
-2 -1 -3 -4 -0 1 6 1 -2 -3 -6 -4 2 1 -1 2 -1 2 0 4 4 0 4 -6 -1 1 2 -0 0 -2 -3 -4
-3 2 3 -1 0 1 4 1 0 1 1 -3 -1 -8 -4 -2 -2 2 1 -1 -4 3 1 -2 -2 -3 -4 -5 -4 -1 0 -1
0 -0 -4 4 0 -4 -2 3 -2 -8 -7 -6 4 2 -3 -1 -1 -0 0 -1 -1 -5 -1 -5 -2 -1 -3 -3 -2 -9 -3 -4
-2 2 1 1 1 1 -2 1 3 2 4 5 3 3 6 5 -1 1 -2 -1 -2 -1 -0 5 -1 -5 -3 0 -2 1 -1 -3
-1 1 -0 0 -0 5 6 5 -3 -1 -1 -0 0 2 5 4 -2 2 0 3 -4 -4 -7 -0 -5 -4 -1 0 4 4 -0 -0
1 1 6 2 -4 -6 -3 -1 -1 -1 -1 -1 -1 -1 9 -2 -5 -4 -3 -2 -0 -4 -8 -8 -8 -5 1 -1 1 -2 0 -1
-2 -0 -3 -1 -5 -13 -8 -4 -5 -2 1 -1 -7 -7 13 1 -0 -1 -2 -3 -3 -2 -1 -1 -4 -7 -5 2 1 1 -1 -2
1 3 -5 -5 -4 4 2 0 -1 -0 -0 -1 -2 1 10 0 1 1 1 -0 -2 -4 -1 0 -0 -0 -1 2 4 -1 -2 1
-2 -6 -2 -0 -1 -4 -4 -3 -1 -7 -3 1 2 -3 2 -3 -2 1 0 1 -2 0 -1 1 -1 -1 1 2 5 -2 -2 3
1 -1 1 -1 0 0 0 -3 4 5 0 -3 0 -5 14 -1 1 -1 -4 -1 -1 0 2 -2 -1 -3 1 4 1 -3 1 -3
1 3 2 1 -1 -0 -1 -3 -0 1 4 -3 -3 -2 -1 -6 -4 -3 -0 -0 1 1 -1 -3 2 -7 -3 2 1 -1 -1 -1
1 -2 -1 -2 -3 5 3 -0 1 -2 6 5 -0 10 10 -1 1 -1 0 -0 -1 1 -0 -0 1 0 -6 0 -1 -2 -1 -0
Height
5815 5815 5812 5808 5807 5803 5802 5796 5794 5791 5786 5784 5781 5776 5772 5767 5764 5756 5755 5749 5746 5741 5736 5732 5729 5725 5721 5717 5714 5710 5707 5703
5811 5809 5806 5805 5802 5799 5797 5792 5789 5784 5781 5776 5772 5767 5762 5757 5752 5746 5744 5738 5736 5730 5726 5721 5716 5711 5707 5703 5699 5696 5693 5687
5807 5804 5802 5799 5796 5793 5789 5786 5782 5777 5773 5767 5764 5760 5754 5749 5744 5739 5734 5729 5725 5719 5714 5709 5704 5699 5694 5688 5683 5679 5677 5670
5803 5799 5796 5793 5790 5786 5782 5778 5775 5771 5764 5760 5756 5752 5746 5740 5736 5728 5722 5716 5710 5705 5699 5694 5688 5682 5678 5670 5663 5658 5654 5652
5797 5794 5791 5787 5783 5779 5775 5771 5766 5763 5758 5752 5747 5742 5737 5730 5723 5716 5711 5703 5698 5691 5685 5678 5672 5665 5660 5653 5647 5640 5633 5631
5789 5786 5782 5779 5775 5771 5767 5761 5757 5752 5750 5744 5738 5732 5725 5718 5711 5704 5697 5691 5684 5676 5668 5661 5654 5646 5639 5633 5626 5619 5612 5604
5780 5777 5772 5771 5768 5764 5759 5754 5748 5742 5737 5733 5727 5721 5714 5707 5700 5692 5684 5676 5667 5659 5649 5642 5634 5626 5617 5609 5601 5594 5588 5582
5772 5768 5765 5760 5757 5753 5751 5746 5740 5734 5727 5721 5715 5708 5700 5692 5683 5675 5666 5657 5649 5641 5632 5621 5614 5605 5596 5588 5579 5570 5562 5555
5764 5761 5758 5755 5749 5745 5741 5735 5729 5723 5715 5708 5701 5692 5684 5675 5665 5657 5648 5640 5631 5624 5613 5603 5592 5582 5572 5562 5553 5545 5535 5526
5756 5752 5747 5744 5740 5734 5728 5723 5717 5710 5703 5695 5687 5678 5669 5660 5649 5640 5630 5620 5609 5599 5589 5577 5567 5557 5548 5538 5525 5514 5505 5497
5747 5744 5739 5734 5729 5724 5719 5714 5707 5698 5690 5681 5672 5661 5650 5639 5628 5618 5607 5597 5587 5575 5566 5556 5546 5535 5522 5510 5498 5488 5482 5477
5737 5733 5730 5726 5720 5714 5707 5700 5691 5682 5672 5662 5651 5640 5630 5619 5607 5597 5585 5576 5564 5553 5542 5532 5520 5509 5498 5489 5481 5473 5467 5462
5729 5725 5720 5713 5706 5699 5692 5684 5674 5664 5653 5642 5632 5622 5610 5600 5588 5578 5565 5555 5544 5530 5518 5508 5497 5488 5480 5473 5466 5460 5454 5449
5717 5713 5708 5703 5694 5685 5677 5668 5658 5648 5637 5625 5613 5602 5593 5579 5569 5558 5545 5533 5521 5511 5499 5488 5478 5469 5462 5456 5451 5445 5440 5435
5713 5707 5698 5690 5681 5672 5663 5653 5641 5630 5617 5605 5594 5587 5576 5561 5550 5536 5525 5514 5502 5490 5480 5470 5462 5456 5449 5445 5438 5431 5425 5419
5704 5695 5688 5680 5670 5659 5647 5635 5622 5609 5599 5589 5576 5565 5554 5540 5530 5518 5507 5496 5485 5475 5466 5457 5449 5442 5437 5431 5423 5415 5408 5402
5693 5684 5675 5665 5654 5642 5629 5616 5605 5592 5577 5567 5555 5546 5536 5520 5509 5497 5487 5478 5469 5460 5451 5443 5436 5429 5423 5417 5408 5398 5390 5382
5680 5671 5660 5649 5637 5624 5611 5598 5586 5574 5561 5548 5532 5522 5512 5500 5489 5479 5472 5463 5455 5446 5438 5431 5425 5416 5410 5402 5392 5382 5372 5364
5666 5655 5644 5632 5618 5605 5592 5579 5566 5552 5541 5528 5514 5507 5495 5482 5472 5463 5456 5448 5441 5434 5426 5420 5413 5404 5395 5387 5376 5367 5358 5351